Temp
25 25 24 24 30 32 30 29 30 30 31 28 29 29 30 29 29 28 20 20 21 20 17 19 20 19 19 20 20 20 20 20 19 19 19 19 19 19 18 18 18 18 18 18 18 18 18 18 18
25 25 24 28 32 31 30 30 30 30 30 28 27 28 29 28 25 21 20 19 20 19 17 18 19 19 19 20 20 20 20 20 20 19 19 19 19 19 18 18 18 18 18 18 18 18 18 18 18
26 26 29 32 32 30 31 31 30 30 29 29 29 28 27 26 22 22 20 20 20 19 18 19 19 19 19 20 20 20 20 20 20 20 19 19 19 19 18 18 18 18 18 18 18 18 18 18 18
25 27 28 32 31 30 30 30 30 30 29 28 29 29 24 21 22 21 20 20 20 19 19 20 20 20 20 20 20 20 20 20 20 20 20 19 19 19 19 18 18 18 18 18 18 18 18 18 19
26 29 31 31 31 31 31 30 29 31 30 29 28 29 25 20 20 20 20 20 21 19 18 19 20 20 20 21 20 20 20 20 20 20 20 19 19 19 19 18 18 19 18 18 19 19 19 19 19
29 29 31 31 31 31 31 29 29 30 30 28 29 29 25 20 20 20 20 20 20 19 17 16 17 19 20 20 20 20 20 20 20 20 20 20 20 19 19 19 19 19 18 18 18 18 19 19 19
29 31 31 31 31 31 31 29 30 30 31 30 28 30 24 22 19 19 20 19 19 19 17 17 17 17 19 20 20 20 20 20 20 20 20 20 20 19 19 19 19 19 19 19 18 19 19 19 19
28 30 30 31 31 31 31 30 28 30 29 27 27 27 26 19 18 19 19 19 18 18 19 18 17 17 16 19 20 20 20 19 20 20 20 20 20 20 20 19 19 19 19 19 19 19 19 19 19
27 30 30 31 31 31 29 29 29 28 28 25 22 22 20 19 20 21 20 20 19 18 18 19 19 18 18 18 17 20 20 20 20 20 20 20 19 18 19 19 19 19 19 19 19 19 19 19 19
28 30 31 31 31 31 26 25 26 28 26 26 22 20 20 21 22 22 22 21 21 20 19 18 18 17 18 17 17 18 17 18 17 17 17 19 17 17 18 18 20 20 20 20 19 19 19 19 20
28 29 31 30 28 27 27 22 23 26 24 23 22 21 21 21 21 21 21 21 20 19 19 18 21 20 18 18 17 18 18 17 17 20 19 17 17 17 18 18 18 18 18 18 19 18 19 19 19
28 28 29 29 26 24 24 22 20 20 19 19 19 18 18 18 17 17 17 17 17 20 19 18 18 21 21 18 17 17 17 17 17 17 20 20 20 17 18 18 19 18 19 19 19 19 19 19 19
28 29 28 26 23 22 21 20 20 18 17 17 16 15 15 15 14 14 14 14 15 15 15 18 17 18 19 20 18 19 18 17 17 17 17 19 18 17 17 18 18 18 19 19 19 19 19 19 19
28 27 25 26 23 21 21 19 20 17 17 16 15 14 13 13 13 12 12 15 16 17 18 16 16 16 16 18 19 18 20 20 21 20 18 20 20 19 19 18 18 18 19 19 19 19 19 19 19
28 26 25 23 24 22 22 19 18 16 16 16 15 13 12 11 11 10 10 9 11 14 16 16 16 17 17 15 15 16 17 18 18 19 21 21 20 20 20 18 18 18 18 18 18 18 19 19 19
28 28 27 23 24 22 23 18 16 15 15 15 14 13 12 10 9 9 9 8 11 13 15 15 16 17 17 18 15 15 16 16 17 17 18 20 21 21 20 19 18 18 18 18 19 19 19 19 20
28 28 28 23 22 23 24 17 15 14 14 14 13 13 12 11 10 8 8 7 9 12 14 14 15 16 16 17 17 15 15 15 16 17 17 17 19 20 20 20 18 19 18 18 18 19 19 19 19
28 27 24 25 21 22 19 16 15 14 14 14 13 12 11 10 9 8 7 7 9 11 12 14 14 15 15 16 16 15 15 15 16 16 16 16 16 16 17 17 19 19 18 18 18 18 19 19 19
28 28 24 20 20 20 18 17 16 14 14 14 13 12 11 10 9 8 7 6 8 11 12 13 13 14 15 16 16 16 16 16 15 15 15 16 15 16 16 16 17 17 18 17 17 18 17 18 19
26 25 22 21 20 20 18 16 15 14 13 13 12 12 11 10 9 8 7 6 6 6 10 12 13 13 13 13 13 14 14 14 14 14 15 15 15 16 16 15 16 17 17 17 17 16 17 19 19
26 25 22 21 20 20 18 17 16 15 14 13 12 11 10 9 9 8 7 6 6 5 5 7 10 11 13 13 13 13 13 12 13 14 15 15 15 15 15 15 15 16 17 17 17 16 16 17 19
25 27 24 21 22 23 21 24 17 17 15 13 12 11 10 9 8 8 7 6 6 6 5 4 5 7 8 11 11 12 12 11 12 12 13 14 14 14 14 14 15 16 19 19 16 15 16 16 17
27 27 24 22 25 24 20 23 20 17 16 14 12 10 9 9 8 7 7 6 6 6 5 4 3 4 5 6 7 6 7 5 7 9 12 13 13 13 14 14 14 13 13 13 14 14 15 15 16
26 26 24 23 25 23 24 23 19 18 18 14 12 10 9 8 8 7 7 6 6 6 5 5 3 3 3 3 3 4 4 6 6 7 8 6 10 11 10 13 13 14 14 14 14 14 14 14 15
25 24 23 23 23 24 23 22 19 14 13 12 11 10 9 8 8 7 6 6 6 5 5 5 3 3 3 3 3 3 3 3 3 3 3 5 5 5 6 9 10 12 13 13 12 13 13 13 14
25 25 27 23 25 26 21 22 18 13 10 10 9 9 8 8 7 7 6 5 6 5 5 4 4 4 3 3 2 2 2 3 3 2 2 3 3 3 2 3 4 6 6 9 10 12 12 10 11
26 25 27 25 26 26 23 14 13 12 11 10 9 9 8 7 6 6 5 5 5 5 4 4 4 4 3 3 3 3 2 2 2 1 1 2 1 1 2 1 2 4 3 3 4 6 7 7 9
24 24 24 25 23 24 24 21 20 12 12 11 10 9 7 7 6 6 5 4 4 4 4 4 4 4 3 3 3 3 2 2 1 1 0 0 1 1 3 2 1 1 1 2 2 3 4 6 7
24 24 24 23 24 24 25 20 15 14 13 11 9 8 7 7 6 6 5 5 4 4 4 4 3 4 3 3 2 2 2 2 1 1 0 -0 0 1 3 3 1 1 1 2 2 2 2 4 6
20 22 22 23 23 24 22 18 13 12 10 9 8 7 6 6 6 5 5 4 4 4 4 4 3 3 3 3 2 2 1 1 1 0 3 2 1 2 1 -0 1 1 1 2 3 3 3 2 4
Height
1522 1520 1519 1519 1511 1499 1512 1514 1510 1508 1507 1514 1514 1513 1513 1515 1515 1523 1528 1530 1536 1539 1539 1541 1543 1545 1547 1548 1550 1552 1553 1554 1555 1556 1556 1557 1558 1559 1560 1560 1561 1562 1562 1563 1563 1563 1563 1563 1563
1523 1521 1521 1515 1504 1511 1516 1509 1510 1508 1511 1515 1516 1517 1514 1517 1523 1527 1529 1530 1536 1540 1541 1542 1544 1546 1548 1550 1552 1554 1555 1556 1557 1558 1559 1560 1561 1562 1562 1563 1564 1564 1564 1564 1564 1564 1565 1565 1564
1524 1522 1520 1506 1504 1517 1513 1509 1511 1511 1513 1513 1513 1517 1518 1524 1527 1529 1530 1532 1538 1540 1540 1543 1545 1547 1550 1551 1553 1555 1557 1558 1558 1559 1561 1561 1563 1564 1564 1565 1565 1566 1566 1566 1566 1567 1567 1566 1566
1527 1525 1520 1507 1513 1514 1512 1512 1513 1512 1512 1514 1513 1515 1525 1529 1529 1530 1531 1536 1539 1541 1541 1543 1545 1548 1550 1552 1555 1556 1558 1559 1560 1561 1562 1564 1565 1565 1566 1567 1567 1567 1568 1568 1568 1568 1568 1568 1567
1527 1521 1511 1511 1511 1511 1510 1513 1514 1510 1513 1515 1516 1517 1526 1530 1530 1533 1535 1539 1543 1544 1544 1544 1547 1549 1551 1554 1556 1558 1560 1561 1562 1563 1564 1566 1567 1567 1568 1568 1568 1568 1569 1569 1569 1569 1569 1568 1568
1523 1521 1514 1511 1512 1510 1511 1513 1513 1513 1514 1517 1516 1519 1529 1534 1537 1539 1541 1545 1547 1550 1550 1550 1551 1554 1555 1557 1558 1560 1562 1563 1564 1565 1566 1567 1568 1568 1569 1569 1569 1570 1570 1570 1570 1570 1570 1569 1569
1523 1515 1512 1513 1514 1509 1512 1515 1512 1512 1512 1515 1520 1519 1535 1539 1541 1543 1546 1549 1551 1554 1554 1555 1556 1557 1558 1560 1562 1563 1564 1565 1566 1568 1568 1569 1569 1570 1570 1570 1570 1571 1571 1571 1570 1570 1570 1570 1569
1523 1518 1516 1512 1514 1514 1513 1511 1515 1513 1519 1524 1523 1528 1535 1541 1541 1544 1547 1549 1552 1555 1558 1560 1559 1560 1561 1561 1563 1564 1566 1567 1568 1569 1571 1570 1571 1571 1571 1571 1571 1571 1571 1571 1571 1570 1570 1569 1569
1525 1518 1514 1512 1513 1512 1515 1516 1516 1521 1521 1528 1533 1535 1540 1542 1545 1547 1549 1553 1555 1556 1557 1561 1562 1563 1564 1567 1563 1564 1566 1567 1569 1570 1571 1571 1572 1575 1573 1572 1571 1571 1571 1571 1571 1570 1570 1570 1570
1521 1517 1510 1512 1514 1514 1527 1528 1524 1522 1529 1530 1537 1541 1543 1545 1547 1549 1552 1554 1556 1557 1559 1560 1562 1562 1563 1563 1565 1564 1566 1568 1569 1570 1571 1571 1573 1573 1572 1571 1571 1571 1570 1570 1570 1570 1570 1570 1571
1519 1515 1510 1516 1520 1524 1527 1535 1531 1524 1534 1541 1543 1546 1547 1547 1549 1551 1553 1556 1557 1558 1559 1560 1559 1560 1563 1565 1565 1567 1568 1569 1568 1567 1568 1570 1572 1572 1572 1572 1572 1571 1570 1571 1571 1570 1570 1570 1569
1518 1518 1515 1518 1526 1532 1533 1540 1539 1542 1551 1553 1552 1554 1554 1551 1551 1553 1554 1556 1556 1560 1561 1560 1559 1559 1561 1563 1565 1565 1566 1567 1568 1568 1566 1567 1568 1569 1569 1571 1571 1569 1569 1568 1568 1569 1567 1566 1566
1518 1516 1520 1525 1532 1538 1539 1544 1544 1553 1557 1557 1557 1558 1557 1554 1553 1553 1552 1552 1552 1555 1556 1560 1560 1558 1559 1560 1562 1563 1563 1564 1565 1565 1565 1565 1566 1567 1567 1568 1568 1568 1568 1568 1567 1566 1566 1565 1564
1515 1518 1527 1528 1534 1540 1541 1550 1548 1561 1561 1561 1560 1560 1560 1558 1557 1555 1552 1550 1551 1552 1552 1553 1559 1558 1559 1558 1558 1560 1560 1561 1561 1562 1562 1562 1562 1563 1563 1564 1564 1564 1565 1565 1565 1564 1563 1563 1562
1515 1524 1528 1535 1532 1538 1538 1552 1562 1565 1565 1563 1563 1563 1563 1561 1559 1556 1555 1552 1551 1550 1550 1551 1551 1550 1550 1554 1555 1556 1557 1559 1558 1559 1558 1559 1559 1559 1559 1560 1560 1561 1561 1560 1560 1559 1559 1559 1558
1513 1511 1519 1535 1531 1536 1535 1562 1570 1569 1567 1567 1567 1567 1566 1564 1561 1559 1556 1553 1551 1550 1549 1548 1547 1548 1548 1548 1550 1553 1555 1555 1555 1556 1556 1555 1556 1556 1556 1556 1557 1557 1557 1557 1557 1557 1556 1556 1555
1508 1511 1508 1528 1534 1534 1531 1562 1572 1571 1570 1571 1571 1570 1568 1566 1563 1561 1558 1555 1552 1550 1549 1548 1547 1546 1546 1546 1547 1549 1551 1551 1553 1553 1553 1553 1551 1552 1552 1552 1553 1552 1552 1552 1553 1552 1552 1551 1550
1504 1509 1521 1521 1540 1538 1547 1563 1572 1573 1571 1572 1572 1571 1571 1569 1567 1564 1561 1557 1554 1551 1549 1548 1547 1546 1545 1544 1544 1547 1548 1551 1552 1551 1551 1550 1549 1549 1548 1548 1548 1548 1548 1549 1549 1548 1548 1547 1546
1498 1500 1520 1540 1543 1545 1553 1561 1569 1572 1572 1572 1572 1573 1573 1573 1572 1569 1564 1561 1557 1555 1552 1549 1547 1545 1544 1544 1543 1543 1543 1545 1545 1543 1543 1544 1545 1545 1545 1545 1545 1544 1543 1544 1544 1544 1541 1540 1541
1504 1512 1529 1537 1543 1545 1555 1563 1569 1572 1574 1575 1574 1575 1575 1575 1574 1571 1568 1564 1560 1556 1553 1550 1547 1545 1543 1542 1541 1538 1539 1541 1540 1540 1542 1540 1539 1534 1535 1536 1539 1540 1540 1538 1539 1538 1537 1537 1535
1503 1507 1524 1527 1540 1545 1551 1560 1566 1571 1572 1574 1576 1576 1577 1576 1574 1572 1569 1566 1564 1559 1555 1551 1549 1547 1546 1543 1540 1537 1539 1539 1536 1536 1536 1529 1535 1529 1528 1529 1528 1528 1530 1533 1530 1534 1529 1529 1530
1504 1500 1513 1527 1525 1526 1531 1524 1557 1562 1568 1572 1575 1577 1577 1577 1576 1574 1571 1568 1565 1561 1558 1554 1550 1547 1545 1542 1540 1539 1538 1536 1534 1532 1531 1531 1527 1524 1523 1523 1521 1520 1516 1523 1519 1523 1523 1520 1521
1492 1495 1507 1517 1510 1513 1534 1526 1535 1557 1560 1569 1575 1577 1577 1577 1575 1574 1572 1569 1566 1562 1560 1557 1552 1548 1545 1543 1540 1538 1537 1536 1533 1530 1526 1523 1520 1517 1516 1515 1514 1512 1510 1510 1509 1512 1513 1513 1511
1492 1498 1509 1515 1506 1519 1505 1520 1536 1546 1549 1566 1573 1575 1576 1576 1575 1574 1572 1569 1566 1565 1562 1559 1555 1551 1546 1543 1540 1537 1534 1531 1528 1523 1520 1518 1514 1512 1511 1508 1506 1506 1504 1502 1501 1502 1502 1502 1503
1495 1503 1516 1523 1515 1511 1505 1521 1533 1554 1563 1569 1572 1574 1575 1575 1574 1573 1571 1570 1567 1565 1562 1559 1554 1550 1547 1543 1539 1536 1532 1530 1526 1522 1518 1512 1510 1507 1505 1501 1499 1497 1495 1493 1492 1491 1490 1490 1491
1490 1490 1479 1509 1496 1490 1515 1510 1531 1558 1568 1570 1572 1574 1575 1575 1573 1572 1570 1568 1567 1564 1561 1557 1553 1551 1547 1544 1540 1536 1532 1530 1526 1522 1517 1512 1508 1503 1499 1495 1492 1489 1486 1484 1481 1479 1478 1477 1479
1481 1489 1476 1485 1474 1479 1492 1540 1554 1561 1565 1568 1570 1573 1574 1575 1574 1572 1570 1568 1566 1563 1560 1556 1553 1551 1548 1544 1540 1537 1533 1528 1524 1519 1515 1510 1504 1499 1494 1489 1484 1481 1478 1476 1473 1469 1468 1467 1466
1487 1485 1490 1482 1497 1492 1483 1498 1508 1550 1555 1565 1569 1572 1574 1574 1573 1572 1570 1568 1567 1564 1562 1558 1554 1551 1548 1544 1540 1536 1531 1527 1521 1516 1510 1505 1500 1493 1486 1481 1477 1472 1468 1466 1463 1460 1458 1456 1454
1485 1484 1484 1483 1480 1480 1480 1506 1531 1542 1552 1562 1569 1573 1574 1573 1572 1571 1570 1568 1567 1565 1562 1559 1556 1553 1549 1545 1541 1537 1532 1527 1521 1515 1508 1502 1495 1488 1481 1474 1468 1463 1457 1454 1450 1447 1444 1442 1440
1497 1490 1490 1487 1482 1478 1487 1513 1544 1551 1558 1564 1568 1571 1572 1572 1571 1570 1569 1567 1565 1564 1562 1559 1555 1552 1549 1545 1541 1537 1532 1527 1521 1514 1505 1498 1491 1483 1476 1469 1462 1454 1448 1443 1438 1433 1430 1428 1426
Wind_Speed
15 14 5 3 6 2 10 7 2 3 4 4 3 3 9 5 9 4 5 11 17 18 18 16 13 11 10 10 12 11 12 13 14 14 15 16 16 16 16 16 16 15 15 14 14 13 14 13 13
12 11 4 6 3 4 8 6 6 7 4 2 2 3 1 7 8 6 10 13 20 19 18 16 14 11 10 10 12 12 12 13 14 15 15 16 15 15 15 16 15 13 12 12 11 11 10 9 9
11 7 7 5 3 8 8 7 2 9 5 3 4 2 5 5 6 5 10 20 20 18 18 17 14 11 10 10 11 12 13 14 15 16 15 15 13 13 13 12 12 11 9 9 8 7 7 7 6
5 4 6 5 9 10 8 5 1 0 6 2 2 6 7 8 3 6 17 21 19 17 18 16 14 12 11 10 12 12 12 13 14 14 14 13 12 12 11 10 9 8 7 6 6 5 4 5 5
5 6 6 1 7 8 8 6 2 1 3 5 2 7 7 7 11 17 18 18 17 15 16 16 13 12 11 11 12 12 12 12 13 13 13 12 12 11 10 9 8 7 6 5 4 4 3 4 4
11 4 7 1 7 7 9 6 2 2 4 3 3 8 9 9 12 12 15 14 13 12 13 12 11 9 9 10 11 11 12 12 12 12 12 13 12 11 9 9 8 6 5 3 3 2 1 2 3
14 6 5 3 5 10 10 4 1 3 2 9 4 11 10 12 11 13 14 12 10 9 9 9 7 7 8 9 9 10 11 11 11 11 11 11 11 10 9 8 7 5 4 3 2 2 2 2 3
10 7 5 3 4 11 10 2 4 6 14 9 14 17 15 11 13 14 13 10 9 10 6 5 6 5 5 6 9 10 11 11 11 10 10 10 9 9 8 6 5 5 5 5 5 5 5 5 4
9 7 8 5 3 7 26 19 12 5 22 21 17 17 16 16 16 15 13 10 8 7 6 6 6 4 6 5 7 10 10 11 11 10 10 9 7 7 7 7 7 7 7 8 7 8 7 6 6
13 10 9 4 2 11 25 27 11 21 19 22 23 20 19 18 15 13 10 7 6 4 2 5 5 6 5 5 6 8 8 9 10 9 10 11 8 10 10 12 9 10 10 10 9 9 8 8 8
17 12 6 6 9 15 8 28 30 19 21 23 19 18 19 18 17 14 12 9 5 3 1 2 4 5 6 5 6 6 7 9 10 13 13 11 10 10 10 10 9 9 11 8 9 8 6 8 7
12 16 9 1 16 20 17 27 36 32 24 21 22 20 19 22 21 18 16 14 12 7 4 2 4 6 6 6 5 7 8 9 9 10 15 15 13 12 12 11 11 11 9 10 8 8 10 9 9
14 8 8 12 22 23 25 30 26 27 21 21 22 22 22 22 21 19 17 14 11 11 7 5 4 6 7 9 9 11 10 10 11 12 13 14 13 14 13 12 12 12 11 11 11 10 10 11 11
15 10 11 16 14 14 25 24 11 19 18 21 23 24 24 24 21 20 20 14 10 6 5 7 5 6 6 9 10 10 12 15 16 15 15 16 17 17 16 15 14 14 14 13 13 12 12 12 13
11 16 16 5 12 18 13 21 14 12 14 19 21 22 23 23 22 23 20 18 14 9 5 4 6 11 12 9 12 12 12 13 14 16 18 18 18 18 18 17 16 15 15 15 15 15 14 14 13
13 14 13 12 7 1 10 9 11 9 12 16 17 18 20 23 23 22 21 19 15 11 7 4 3 5 9 12 9 11 12 13 14 14 16 19 20 20 21 20 17 16 16 16 17 16 15 15 15
10 14 18 7 5 3 3 13 9 9 12 15 16 17 19 20 23 23 21 20 18 14 11 7 5 5 7 9 12 8 12 13 13 14 14 16 18 19 21 20 18 18 17 16 16 16 17 17 17
15 9 4 5 11 16 19 17 12 10 13 14 15 17 18 20 22 21 21 19 18 16 14 11 10 8 8 7 6 4 5 6 12 13 14 15 15 16 18 18 19 20 18 17 18 19 17 18 18
6 9 12 14 11 11 16 15 12 11 12 14 15 16 17 18 17 18 19 19 18 16 15 13 11 11 9 9 6 3 6 10 5 10 10 10 14 15 17 18 17 17 18 20 21 22 22 20 19
9 12 16 10 7 9 15 14 11 11 12 13 13 15 15 15 16 18 19 20 20 20 18 17 16 15 15 11 10 8 7 7 11 17 14 18 20 22 22 19 17 17 18 19 21 22 24 25 21
14 18 18 12 12 14 18 11 11 10 12 12 13 13 14 16 16 18 19 20 20 21 21 20 19 17 14 13 12 10 7 10 11 15 19 19 21 19 23 25 26 23 16 22 25 27 26 27 27
15 17 16 22 16 8 23 6 11 11 9 10 11 13 14 15 15 17 18 19 20 21 19 19 21 21 20 18 16 13 12 14 16 16 18 18 21 20 22 23 25 21 18 33 34 27 29 30 33
14 17 21 23 17 6 21 8 14 11 9 6 9 11 12 14 15 17 17 17 19 20 19 19 20 20 21 21 20 18 17 17 17 19 21 20 21 22 25 28 33 31 30 32 37 29 29 28 32
3 15 14 11 11 11 16 14 12 12 10 6 7 9 11 12 13 15 16 16 18 18 19 18 20 20 21 21 21 21 21 22 22 24 23 22 22 21 22 27 31 35 42 40 39 38 42 40 37
13 20 8 9 10 11 9 10 11 13 8 5 5 7 8 10 12 14 16 16 17 18 19 19 21 22 22 22 23 22 23 22 23 25 25 29 25 24 24 28 28 30 35 38 39 40 43 41 38
15 22 12 14 14 13 8 8 8 12 9 6 5 5 6 9 11 13 15 16 17 18 19 20 21 22 22 23 23 23 23 23 23 25 26 26 26 27 29 30 30 31 33 34 35 37 40 39 38
15 16 13 14 7 9 10 6 7 11 9 5 5 5 6 8 10 12 13 15 16 18 19 20 20 21 22 22 23 24 25 26 26 27 26 26 27 29 30 31 32 32 33 32 33 34 35 35 38
9 2 9 10 19 21 11 9 5 18 13 7 5 4 5 6 8 10 12 13 15 15 16 17 19 20 21 21 22 23 28 29 28 28 29 30 30 32 34 34 33 34 34 33 33 33 33 34 36
5 10 8 7 6 12 16 6 7 14 11 8 6 4 4 6 7 9 11 12 13 14 15 16 17 18 19 20 20 21 23 29 30 30 31 30 31 32 35 35 35 36 39 38 38 38 37 38 39
3 5 7 8 13 8 8 4 7 11 12 9 7 4 4 5 7 9 10 12 14 15 15 16 17 17 18 19 20 21 22 26 28 32 37 35 34 35 35 35 37 39 41 41 40 41 41 38 38
Wind_Direction
3 9 2 293 235 122 56 69 12 86 145 45 139 317 20 10 8 30 148 150 154 157 159 169 162 152 147 143 146 145 138 137 134 131 125 123 123 122 120 120 119 115 109 105 102 96 93 89 83
358 357 322 282 306 34 79 31 55 46 63 102 191 253 306 67 49 92 125 148 149 154 155 165 162 156 151 147 150 145 145 143 135 130 126 126 127 128 126 123 119 111 105 102 99 94 92 86 76
355 354 293 311 4 42 56 76 38 69 96 163 131 359 18 30 39 113 146 141 147 150 158 167 160 157 156 155 155 149 152 146 137 131 132 130 133 131 130 126 122 115 110 109 107 100 91 80 64
329 274 230 291 36 70 28 11 327 287 108 180 58 91 79 35 55 125 134 142 142 153 157 163 158 158 162 163 161 156 157 149 139 135 136 137 140 138 137 136 132 127 122 116 112 104 92 74 57
308 260 270 258 63 38 30 34 233 229 68 65 352 86 74 54 90 123 131 139 145 150 152 162 161 163 166 168 166 163 162 154 144 143 145 146 146 147 145 144 144 140 140 134 123 113 88 62 47
259 270 247 235 64 47 52 35 87 199 85 76 92 93 79 96 101 117 127 131 141 143 151 159 164 167 168 173 170 172 168 163 155 154 156 155 157 158 160 157 152 152 152 160 159 128 62 24 6
260 255 269 310 49 64 32 64 49 94 112 68 55 64 89 88 100 103 114 113 125 133 132 154 162 176 176 179 179 182 181 178 170 166 166 165 167 168 174 175 175 179 189 214 227 253 275 298 330
260 267 229 175 56 60 33 113 82 31 59 64 19 40 69 109 109 112 111 107 119 126 120 134 140 162 170 193 191 192 194 194 189 183 185 182 184 186 189 193 207 211 222 242 258 268 277 296 323
229 245 229 137 238 50 38 20 56 60 69 68 71 80 102 107 107 104 104 104 114 127 158 156 159 188 163 196 227 207 204 206 205 200 204 202 209 252 239 241 244 244 253 260 268 273 279 292 317
222 228 221 90 4 8 65 38 21 77 56 66 70 82 97 101 100 97 91 99 110 114 164 168 179 188 185 195 201 211 214 216 222 221 224 222 241 240 235 241 246 258 266 271 282 282 283 313 314
215 238 170 206 21 42 63 58 44 75 58 53 74 88 93 92 86 81 76 67 75 87 58 243 263 243 188 210 220 215 223 228 234 231 227 234 241 259 260 266 277 282 284 292 290 288 292 271 283
234 228 245 125 64 75 80 82 66 65 68 67 71 78 80 79 75 71 66 57 61 50 6 311 288 307 283 244 253 239 233 238 237 244 244 243 249 258 258 262 265 272 266 258 274 262 263 280 284
224 184 205 97 99 92 82 74 78 66 69 72 73 70 65 67 65 61 57 56 58 50 50 23 280 298 288 281 269 269 252 250 246 250 254 251 253 256 261 266 269 267 267 270 270 267 272 273 285
190 88 96 145 107 107 87 67 82 61 73 73 70 64 60 59 58 55 49 55 55 55 51 66 24 314 279 270 262 256 274 276 275 259 256 261 258 261 263 265 268 269 267 269 265 271 272 276 278
170 138 120 65 169 145 121 56 63 68 71 70 65 62 57 54 51 51 46 45 47 49 56 123 167 206 207 249 257 257 250 256 263 267 271 266 263 263 263 264 265 267 268 266 265 270 272 276 274
186 208 191 49 198 29 218 90 62 63 73 67 62 59 56 50 48 45 43 42 46 49 45 40 280 254 239 242 260 255 257 258 257 258 264 272 274 273 273 270 267 268 269 266 264 266 269 270 273
201 202 209 119 26 124 212 119 87 79 79 71 63 56 50 46 42 38 37 37 39 45 43 30 355 303 275 264 260 255 270 267 265 264 265 268 272 273 275 277 267 271 270 265 265 263 262 266 268
194 188 52 103 66 97 104 110 100 85 82 73 64 55 48 41 34 30 30 34 35 38 39 35 20 359 329 308 296 283 227 265 289 280 276 273 272 272 272 272 275 276 270 266 265 263 263 263 264
301 222 134 122 119 84 110 114 104 93 81 71 62 53 47 41 32 30 28 27 32 37 40 37 29 23 7 342 343 306 285 264 218 230 244 272 262 274 272 270 269 273 271 270 267 272 269 263 264
204 157 143 128 141 130 132 113 108 97 82 69 62 53 45 38 31 28 25 24 23 24 28 30 28 20 14 9 11 356 327 285 254 262 271 265 253 242 241 242 260 265 263 268 274 270 267 267 258
197 192 175 149 145 141 138 130 135 117 97 79 61 53 44 35 29 24 24 23 20 20 18 17 19 19 16 9 1 353 329 282 270 269 273 265 267 261 248 241 235 234 256 278 282 275 264 264 258
199 220 173 154 163 185 215 158 175 156 119 78 59 46 37 32 30 26 23 24 22 20 14 14 13 11 8 6 3 357 346 330 315 301 286 281 277 269 260 250 242 236 249 262 266 273 270 262 259
237 190 180 182 210 164 193 259 135 177 164 94 60 47 38 31 27 23 22 22 21 19 14 12 11 8 7 5 3 360 349 338 328 322 311 305 291 285 273 261 255 251 259 261 255 254 254 258 260
261 162 169 200 225 234 186 222 155 176 173 130 73 48 37 30 27 23 20 18 18 17 15 12 12 10 8 5 2 357 349 343 336 329 328 320 316 305 298 283 272 265 268 271 268 266 259 257 260
163 158 168 204 211 240 148 202 80 120 124 107 80 50 32 25 22 19 17 16 13 11 10 12 10 11 8 6 3 358 354 350 344 337 330 325 321 315 309 297 292 282 276 276 273 267 263 259 251
200 202 240 214 220 212 162 217 133 136 138 117 90 58 33 23 18 16 13 12 8 6 5 8 8 7 7 6 4 1 357 350 345 337 332 327 319 314 310 306 300 296 292 285 279 274 269 265 260
198 225 271 287 257 281 138 109 148 165 160 134 90 63 43 27 21 16 12 10 7 4 4 4 2 1 2 3 4 3 358 352 347 340 334 326 321 314 311 309 305 300 293 290 287 280 275 271 267
260 360 228 223 256 250 197 175 118 180 172 150 128 80 50 28 22 16 12 8 7 4 1 0 1 358 356 355 356 357 359 354 347 343 338 334 328 323 318 314 310 306 302 296 288 283 278 273 269
204 221 232 292 305 274 264 109 99 163 152 149 124 98 59 35 23 15 8 5 2 0 359 356 357 356 353 352 350 347 349 352 352 348 344 338 335 332 328 321 313 308 305 301 294 286 280 275 270
293 294 286 263 232 242 288 87 126 130 140 142 131 101 51 26 18 9 2 1 359 358 355 354 354 353 351 349 349 345 343 347 349 349 351 349 345 344 340 333 327 322 312 306 301 296 291 277 270